www.pogodaiklimat.ru

Погода и климат >> Архив погоды >> Индия >> Cannanore


ПОГОДА в Cannanore

  • Прогноз погоды в Cannanore
  • Монитор погоды в Cannanore
  • Климат города

АРХИВ ПОГОДЫ в Cannanore

Время (UTC), дата Ветер
(напр.,м/с)
 
Видим.   Явления Облачность Т
(С)
Тd
(С)
f
(%)
Тe
(С)
Тes
(С)
Комфортность P
(гПа)
Po
(гПа)
Тmin
(С)
Tmax
(С)
R
(мм)
R24
(мм)
S
(см)
12 15.11 З 1 10 км 6/1 600 м
[Cu Sc Cs]
+28.6 +22.1 68 +37 +38 очень
душно
1006.6 1007.0 +31.6
00 16.11 штиль 0 2000 м дымка 4/1 600 м
[Sc Ac inh Ci fib]
+23.4 +22.2 93 +32 +32 очень
душно
1007.9 1008.0
03 16.11 СВ 1 4000 м мгла 3/0
[Ci fib]
+25.6 +22.0 81 +33 +37 очень
душно
1009.5 1010.0 +23.4 +31.6
06 16.11 СЗ 2 10 км 1/0
[Ci fib]
+31.4 +20.6 53 +38 +54 опасность
солнечного
удара
1009.0 1009.0
09 16.11 ЮЗ 3 10 км 3/1 600 м
[Cu Sc Ci fib]
+31.4 +22.7 60 +41 +49 опасность
перегрева
1006.6 1007.0
12 16.11 З 1 4000 м мгла 1/0
[Ci fib]
+28.6 +21.4 65 +36 +37 очень
душно
1006.5 1007.0 +32.1
00 17.11 СВ 2 2000 м дымка 6/4 600 м
[Sc Ac trans Ci fib]
+24.6 +22.2 87 +32 +32 очень
душно
1007.7 1008.0
03 17.11 СВ 1 4000 м мгла 4/1 600 м
[Sc Ci sp]
+25.6 +23.3 87 +34 +38 очень
душно
1009.8 1010.0 +24.4 +32.1
06 17.11 ЮЗ 2 10 км 6/4 600 м
[Cu Sc Ac trans Ci sp]
+31.4 +23.9 64 +43 +51 опасность
перегрева
1009.2 1009.0
09 17.11 З 3 10 км 1/0
[Ci fib]
+31.2 +24.0 66 +43 +52 опасность
перегрева
1006.2 1006.0
12 17.11 З 2 4000 м мгла 5/3 600 м
[Cu Sc Ci sp]
+29.0 +24.4 76 +41 +41 опасность
перегрева
1005.7 1006.0 +32.6
00 18.11 штиль 0 2000 м зарница 5/3 600 м
[Cb cap Ci fib]
+25.4 +24.5 95 +36 +36 очень
душно
1007.7 1008.0
03 18.11 СВ 1 2000 м дымка 9/4 300 м
[Cu Sc Ac trans Cs]
+26.4 +24.4 89 +37 +38 очень
душно
1010.1 1010.0 +25.2 +32.6
06 18.11 ЮЗ 2 4000 м мгла 9/3 600 м
[Cu Sc Ac trans Cs]
+29.0 +25.9 83 +43 +50 опасность
перегрева
1010.1 1010.0
09 18.11 З 1 10 км 5/1 600 м
[Sc Ac trans Ci fib]
+30.8 +25.4 73 +45 +54 опасность
перегрева
1007.0 1007.0
12 18.11 З 1 4000 м мгла 5/1 600 м
[Cu hum Ac trans Ci sp]
+29.2 +24.3 75 +41 +41 опасность
перегрева
1006.7 1007.0 +31.4
00 19.11 СВ 2 2000 м дымка 5/4 600 м
[Sc Ci fib]
+25.6 +24.1 91 +35 +35 очень
душно
1009.1 1009.0
03 19.11 СВ 1 2000 м дымка 5/3 600 м
[Sc Ac trans Ci fib]
+27.0 +25.0 89 +39 +41 очень
душно
1011.5 1012.0 +25.6 +31.4
06 19.11 З 2 4000 м мгла 8/5 300 м
[Cu Sc Ac trans Cs]
+30.2 +24.8 73 +43 +48 опасность
перегрева
1011.5 1012.0
09 19.11 ЮЗ 3 10 км 5/1 600 м
[Cu Sc Ci sp]
+31.4 +24.3 66 +44 +52 опасность
перегрева
1008.5 1009.0
12 19.11 З 2 4000 м мгла 5/1 600 м
[Cu Sc Ci sp]
+29.4 +24.5 75 +42 +42 опасность
перегрева
1008.2 1008.0 +32.2
00 20.11 штиль 0 2000 м дымка 4/1 600 м
[Sc Ci fib]
+25.6 +24.1 91 +35 +35 очень
душно
1010.1 1010.0
03 20.11 СВ 1 4000 м мгла 6/1 600 м
[Sc Cs]
+26.6 +24.3 87 +37 +40 очень
душно
1012.0 1012.0 +25.2 +32.2
06 20.11 ЮЗ 1 4000 м мгла 4/3 600 м
[Cu Sc Ci fib]
+31.2 +24.7 68 +44 +56 опасность
перегрева
1011.6 1012.0
09 20.11 З 2 4000 м мгла 3/1 600 м
[Cu Sc Ci fib]
+32.0 +24.9 66 +45 +55 опасность
перегрева
1008.4 1008.0
12 20.11 З 2 4000 м мгла 6/1 600 м
[Cu Sc Cs]
+30.0 +25.2 76 +44 +44 опасность
перегрева
1008.4 1008.0 +32.3
00 21.11 СВ 2 2000 м зарница 6/4 600 м
[Cb cap Ac trans Ci fib]
+25.8 +24.4 92 +36 +36 очень
душно
1009.4 1009.0
03 21.11 ЮВ 1 4000 м мгла 8/4 600 м
[Cu Sc Ac trans Cs]
+27.4 +24.8 86 +39 +41 очень
душно
1011.4 1011.0 +25.7 +32.3
06 21.11 ЮЗ 2 10 км 5/3 600 м
[Cu Sc Ci fib]
+31.8 +24.4 65 +44 +54 опасность
перегрева
1010.5 1011.0
09 21.11 ЮЗ 3 10 км 4/1 600 м
[Cu Sc Ci sp]
+32.0 +25.8 70 +47 +56 опасность
перегрева
1007.8 1008.0
12 21.11 З 2 4000 м мгла 3/0
[Ci sp]
+30.2 +25.4 76 +44 +45 опасность
перегрева
1007.4 1007.0 +33.6
00 22.11 штиль 0 2000 м зарница 5/4 600 м
[Cb cap Ci fib]
+26.2 +25.1 94 +38 +38 очень
душно
1008.4 1008.0
06 22.11 ЮЗ 2 10 км 6/5 600 м
[Cu Sc Ci fib]
+32.4 +24.7 64 +45 +53 опасность
перегрева
1009.9 1010.0

 

Местоположение метеостанции Cannanore (Kerala, Индия): широта 11.83 долгота 75.33 высота над уровнем моря 18 м.

В архиве по умолчанию представлена погода в Cannanore за последнюю неделю. Архивные данные за месяц целиком и за предыдущие месяцы, начиная с января 2011 года, Вы можете получить, выбрав интересующий диапазон дат из раскрывающегося списка и нажав кнопку "Ввод!".

Внимание! Время в таблицах - всемирное. Для получения местного времени необходимо прибавить поправку, которая в Cannanore равна 5.5 ч.

Смотрите также архив погоды в соседних городах и на ближайших метеорологических станциях:

Погода в Madikeri (Karnataka, Индия) (79 км)
Погода в Kozhikode (Kerala, Индия) (81 км)
Погода в Karipur (Kerala, Индия) (103 км)
Погода в Mangalore Airport (Karnataka, Индия) (131 км)
Погода в Mangalore (Karnataka, Индия) (136 км)
Погода в Mysore (Karnataka, Индия) (158 км)
Погода в Udhagamandalam (Tamil Nadu, Индия) (160 км)
Погода в Chickmagalur (Karnataka, Индия) (164 км)
Погода в Hassan (Karnataka, Индия) (167 км)
Погода в Coonoor (Tamil Nadu, Индия) (169 км)

Пояснения к столбцам:

Ветер - указаны скорость ветра в м/с - средняя за 10 мин, порывы в срок и между сроками (в фигурных скобках) и направление, откуда дует ветер: С - северный, СВ - северо-восточный, В - восточный, ЮВ - юго-восточный, Ю - южный, ЮЗ - юго-западный, З - западный, СЗ - северо-западный.
Видимость - горизонтальная дальность видимости в метрах или километрах. При видимости от 1 до 10 км при отсутствии осадков обычно наблюдается дымка, при ухудшении видимости до 1 км и менее - туман. В сухую погоду видимость может ухудшаться дымом, пылью или мглою.
Явления - указаны атмосферные явления, наблюдавшиеся в срок или в последний час перед сроком; фигурными скобками обозначены явления, наблюдавшиеся между сроками (за 1-3 часа до срока); квадратными скобками обозначены град или гололедные отложения с указанием их диаметра в мм.
Облачность - указаны через наклонную черту общая и нижняя облачность в баллах и высота нижней границы облаков в метрах; квадратными скобками обозначены формы облаков: Ci - перистые, Cs - перисто-слоистые, Cc - перисто-кучевые, Ac - высококучевые, As - высокослоистые, Sc - слоисто-кучевые, Ns - слоисто-дождевые, Cu - кучевые, Cb - кучево-дождевые. Подробнее классификацию облаков см. в Атласе облаков (PDF).
T - Температура воздуха - температура, измеренная на высоте 2 м над землей.
Td - Температура точки росы - температура, при понижении до которой содержащийся в воздухе водяной пар достигнет насыщения.
f - Относительная влажность воздуха - влажноcть воздуха, измеренная на высоте 2 м над землей.
Te - Эффективная температура - температура, которую ощущает одетый по сезону человек в тени. Характеристика душности погоды. При расчете учитывается влияние влажности воздуха и скорости ветра на теплоощущения человека.
Tes - Эффективная температура на солнце - температура, которую ощущает человек, с поправкой на солнечный нагрев. Характеристика знойности погоды. Зависит от высоты солнца над горизонтом, облачности и скорости ветра. Ночью, в пасмурную погоду, а также при ветре 12 м/с и более поправка равна нулю.
P - Атмосферное давление - приведенное к уровню моря атмосферное давление.
Po - Атмосферное давление - измеренное на уровне метеостанции атмосферное давление.
Tmin - Минимальная температура - минимум температуры воздуха на высоте 2 м над землей.
Tmax - Максимальная температура - максимум температуры воздуха на высоте 2 м над землей.
R - Количество осадков - Количество выпавших осадков за период времени, мм. При наведении курсора мыши на число - период времени, за который выпало указанное количество осадков.
R24 - Количество осадков - Количество выпавших осадков за 24 часа, мм.
S - Снежный покров - Высота снежного покрова, см. При наведении курсора мыши на число - состояние снежного покрова и степень покрытия местности в баллах.